Regional Weather Roundup
Issued by NWS

Home | Current Version | Previous Version | Text Only | Print | Product List | Glossary Off
Versions: 1 2 3 4 5 6 7 8 9 10 11 12 13 14 15 16 17 18 19 20 21 22 23 24 25 26 27 28 29 30 31 32 33 34 35 36 37 38 39 40 41 42 43 44 45 46 47 48 49 50

000
ASUS43 KLSX 250907
RWRMO

WEATHER SUMMARY FOR MISSOURI
NATIONAL WEATHER SERVICE SPRINGFIELD MO
400 AM CDT SAT OCT 25 2014

NOTE: "FAIR" INDICATES FEW OR NO CLOUDS BELOW 12,000 FEET WITH NO
       SIGNIFICANT WEATHER AND/OR OBSTRUCTIONS TO VISIBILITY.
       CURRENT SKY AND/OR WEATHER CONDITIONS ARE NOT AVAILABLE FOR
       CHILLICOTHE AND FARMINGTON.

MOZ001>031-035>038-043-044-053-054-251000-
...NORTHERN AND WESTERN MISSOURI...

CITY           SKY/WX    TMP DP  RH WIND       PRES   REMARKS
KANSAS CTY INT FOG       55  55 100 SW3       30.00F VSB 3/4
KANSAS C DTWN  CLEAR     60  59  96 CALM      30.00F FOG
LEE`S SUMMIT   PTCLDY    59  58  96 W6        30.01S FOG
ST JOSEPH      FOG       51  51 100 N5        30.01S VSB 1
CHILLICOTHE      N/A     52  51  97 CALM      30.00S
KIRKSVILLE     FOG       56  56 100 W5        30.00R VSB 1/4

$$
MOZ066>068-077>081-088>096-101>105-251000-
...SOUTHWEST MISSOURI...

CITY           SKY/WX    TMP DP  RH WIND       PRES   REMARKS
SPRINGFIELD    CLEAR     58  55  90 SW5       30.06R
JOPLIN         CLEAR     64  60  87 SW10      30.06R

$$
MOZ032>034-039>042-045>050-055>058-069>072-251000-
...CENTRAL MISSOURI...

CITY           SKY/WX    TMP DP  RH WIND       PRES   REMARKS
COLUMBIA       CLEAR     61  60  97 W3        30.00S
JEFFERSON CITY PTCLDY    58  56  93 CALM      30.00R FOG
ROLLA          PTCLDY    59  57  93 SW10      30.00S
SEDALIA        CLEAR     63  59  87 SW8       30.01S
WHITEMAN AFB   CLEAR     59  57  94 SW5       30.00F
OSAGE BEACH    PTCLDY    63  57  82 SW3       30.02S

$$
MOZ051-052-059>065-251000-
...EAST CENTRAL MISSOURI...

CITY           SKY/WX    TMP DP  RH WIND       PRES   REMARKS
ST LOUIS INTL  NOT AVBL
SPIRIT OF STL  PTCLDY    59  57  93 W3        29.98R
ST CHARLES     PTCLDY    53  51  93 CALM      29.98S

$$
MOZ072>076-082>087-097>100-106>115-251000-
...SOUTH CENTRAL AND SOUTHEAST MISSOURI...

CITY           SKY/WX    TMP DP  RH WIND       PRES   REMARKS
CAPE GIRARDEAU CLEAR     52  50  93 CALM      30.03S
FARMINGTON     CLEAR     57  54  88 S5        30.03S
POPLAR BLUFF   CLEAR     55  52  89 SW3       30.03F FOG
WEST PLAINS    CLEAR     58  56  93 W7        30.06F

$$



USA.gov is the U.S. government's official web portal to all federal, state and local government web resources and services.